Ukiah, CA

5:49 PM PDT on August 21, 2017 (GMT -0700)
Ukiah Municipal

Weather History for KUKI - November, 2011

Change the Weather History Date:

Tuesday, November 29, 2011

  Actual Average Record
Temperature  
Mean Temperature 52 °F 47 °F  
Max Temperature 66 °F 58 °F 78 °F (1949)
Min Temperature 37 °F 37 °F 19 °F (2015)
Degree Days  
Heating Degree Days 13 18  
Month to date heating degree days 446 405  
Since 1 July heating degree days 561 605  
Cooling Degree Days 0 0  
Month to date cooling degree days 0 0  
Year to date cooling degree days 895 835  
Moisture  
Dew Point 40 °F    
Average Humidity 72    
Maximum Humidity 100    
Minimum Humidity 43    
Precipitation  
Precipitation 0.00 in 0.19 in 2.48 in (2012)
Month to date precipitation 2.68 4.06  
Year to date precipitation 28.33 30.19  
Since 1 July precipitation 6.29  
Snow  
Snow 0.00 in - - ()
Month to date snowfall 0.0  
Since 1 July snowfall 0.0  
Since 1 September snowfall 0.0  
Snow Depth 0.00 in    
Sea Level Pressure  
Sea Level Pressure 30.25 in    
Wind  
Wind Speed 1 mph (NW)    
Max Wind Speed 5 mph    
Max Gust Speed -    
Visibility 5 miles    
Events Fog    
T = Trace of Precipitation, MM = Missing Value Source: NWS Daily Summary

Daily Weather History Graph

Daily Weather History Graph

Search for Another Location

Airport or City:

Trip Planner

Search our weather history database for the weather conditions in past years. The results will help you decide how hot, cold, wet, or windy it might be!

Date:

Astronomy

Nov. 29, 2011 Rise Set
Actual Time 7:10 AM PST 4:51 PM PST
Civil Twilight 6:41 AM PST 5:20 PM PST
Nautical Twilight 6:08 AM PST 5:53 PM PST
Astronomical Twilight 5:36 AM PST 6:25 PM PST
Moon 11:01 AM PST (11/29) 9:49 PM PST (11/29)
Length of Visible Light 10h 39m
Length of Day
9h 40m
Waxing Crescent, 25% of the Moon is Illuminated
Nov 29
Waxing Crescent
Dec 2
First Quarter
Dec 10
Full
Dec 17
Last Quarter
Dec 24
New

Hourly Weather History & Observations

Time (PST) Temp. Dew Point Humidity Pressure Visibility Wind Dir Wind Speed Gust Speed Precip Events Conditions
12:51 AM 39.2 °F 37.4 °F 93% 30.24 in 1.8 mi Calm Calm - N/A   Clear
12:56 AM 39.9 °F 39.0 °F 97% 30.24 in 0.8 mi Calm Calm - N/A   Mist
1:03 AM 39.2 °F 39.2 °F 100% 30.24 in 1.2 mi Calm Calm - N/A   Scattered Clouds
1:11 AM 39.2 °F 39.2 °F 100% 30.24 in 2.5 mi Calm Calm - N/A   Partly Cloudy
1:20 AM 39.2 °F 39.2 °F 100% 30.24 in 7.0 mi Calm Calm - N/A   Partly Cloudy
1:56 AM 37.9 °F 37.9 °F 100% 30.24 in 10.0 mi Calm Calm - N/A   Clear
2:46 AM 37.4 °F 37.4 °F 100% 30.25 in 2.5 mi Calm Calm - N/A   Scattered Clouds
2:56 AM 37.9 °F 37.0 °F 97% 30.25 in 2.5 mi Calm Calm - N/A   Mostly Cloudy
3:03 AM 37.4 °F 37.4 °F 100% 30.25 in 10.0 mi Calm Calm - N/A   Mostly Cloudy
3:14 AM 39.2 °F 37.4 °F 93% 30.25 in 10.0 mi Calm Calm - N/A   Scattered Clouds
3:28 AM 37.4 °F 35.6 °F 93% 30.25 in 9.0 mi Calm Calm - N/A   Mostly Cloudy
3:56 AM 37.9 °F 37.9 °F 100% 30.25 in 9.0 mi Calm Calm - N/A   Overcast
4:12 AM 39.2 °F 37.4 °F 93% 30.26 in 2.0 mi Calm Calm - N/A   Overcast
4:21 AM 39.2 °F 37.4 °F 93% 30.26 in 7.0 mi Calm Calm - N/A   Overcast
4:29 AM 39.2 °F 37.4 °F 93% 30.26 in 2.0 mi Calm Calm - N/A   Overcast
4:33 AM 39.2 °F 37.4 °F 93% 30.26 in 0.8 mi Calm Calm - N/A   Mist
4:56 AM 37.9 °F 37.9 °F 100% 30.26 in 0.2 mi Calm Calm - N/A Fog Fog
5:17 AM 37.4 °F 37.4 °F 100% 30.26 in 0.5 mi Calm Calm - N/A Fog Fog
5:24 AM 39.2 °F 39.2 °F 100% 30.26 in 0.2 mi Calm Calm - N/A Fog Fog
5:56 AM 37.9 °F 37.9 °F 100% 30.26 in 0.2 mi Calm Calm - N/A Fog Fog
6:42 AM 37.4 °F 37.4 °F 100% 30.27 in 0.5 mi Calm Calm - 0.01 in Fog Fog
6:56 AM 37.0 °F 37.0 °F 100% 30.28 in 0.5 mi Calm Calm - 0.01 in Fog Fog
7:20 AM 37.4 °F 37.4 °F 100% 30.28 in 0.2 mi Calm Calm - N/A Fog Fog
7:53 AM 37.4 °F 37.4 °F 100% 30.29 in 0.5 mi Calm Calm - N/A Fog Fog
7:56 AM 37.4 °F 37.4 °F 100% 30.29 in 0.5 mi Calm Calm - N/A Fog Fog
8:10 AM 37.4 °F 37.4 °F 100% 30.29 in 0.2 mi Calm Calm - N/A Fog Fog
8:29 AM 37.4 °F 37.4 °F 100% 30.29 in 0.2 mi Calm Calm - N/A Fog Fog
8:56 AM 37.9 °F 37.9 °F 100% 30.30 in 0.2 mi Calm Calm - N/A Fog Fog
9:05 AM 39.2 °F 39.2 °F 100% 30.29 in 1.0 mi Calm Calm - N/A   Mist
9:14 AM 39.2 °F 39.2 °F 100% 30.29 in 3.0 mi Calm Calm - N/A   Overcast
9:35 AM 42.8 °F 42.8 °F 100% 30.30 in 10.0 mi Calm Calm - N/A   Scattered Clouds
9:56 AM 44.6 °F 42.8 °F 93% 30.30 in 10.0 mi Calm Calm - N/A   Clear
10:56 AM 53.1 °F 42.1 °F 66% 30.27 in 10.0 mi Calm Calm - N/A   Clear
11:56 AM 57.0 °F 43.0 °F 59% 30.23 in 10.0 mi Calm Calm - N/A   Clear
12:56 PM 61.0 °F 43.0 °F 52% 30.20 in 10.0 mi Calm Calm - N/A   Clear
1:56 PM 64.9 °F 41.0 °F 42% 30.19 in 10.0 mi NNW 3.5 mph - N/A   Clear
2:56 PM 64.4 °F 44.6 °F 49% 30.18 in 10.0 mi WNW 3.5 mph - N/A   Clear
3:56 PM 60.1 °F 46.9 °F 62% 30.17 in 10.0 mi WNW 4.6 mph - N/A   Clear
4:56 PM 55.0 °F 46.0 °F 72% 30.17 in 10.0 mi Calm Calm - N/A   Clear
5:56 PM 52.0 °F 45.0 °F 77% 30.19 in 8.0 mi Calm Calm - N/A   Clear
6:56 PM 48.9 °F 45.0 °F 86% 30.22 in 10.0 mi Calm Calm - N/A   Clear
7:56 PM 48.9 °F 46.0 °F 90% 30.22 in 10.0 mi Calm Calm - N/A   Clear
8:56 PM 48.0 °F 45.0 °F 89% 30.22 in 8.0 mi Calm Calm - N/A   Clear
9:56 PM 43.0 °F 42.1 °F 97% 30.23 in 10.0 mi Calm Calm - N/A   Clear
10:56 PM 44.1 °F 43.0 °F 96% 30.24 in 10.0 mi Calm Calm - N/A   Clear
11:56 PM 42.8 °F 42.8 °F 100% 30.24 in 10.0 mi Calm Calm - N/A   Clear